West Plains, MO

2:46 PM CDT on June 23, 2017 (GMT -0500)
West Plains Municipal

Weather History for KUNO - January, 2014

Change the Weather History Date:

Friday, January 10, 2014

  Actual Average Record
Temperature  
Mean Temperature 40 °F 34 °F  
Max Temperature 48 °F 44 °F 71 °F (2017)
Min Temperature 31 °F 23 °F -11 °F (1977)
Degree Days  
Heating Degree Days 25 31  
Month to date heating degree days 411 310  
Since 1 July heating degree days 2168 2055  
Cooling Degree Days 0 0  
Month to date cooling degree days 0 0  
Year to date cooling degree days 0 0  
Moisture  
Dew Point 39 °F    
Average Humidity 96    
Maximum Humidity 100    
Minimum Humidity 92    
Precipitation  
Precipitation 0.89 in 0.05 in 1.13 in (1975)
Month to date precipitation 1.57 0.64  
Year to date precipitation 1.57 0.64  
Sea Level Pressure  
Sea Level Pressure 29.83 in    
Wind  
Wind Speed 9 mph (SSE)    
Max Wind Speed 21 mph    
Max Gust Speed 27 mph    
Visibility 3 miles    
Events Fog , Rain    
T = Trace of Precipitation, MM = Missing Value Source: NWS Daily Summary

Daily Weather History Graph

Daily Weather History Graph

Search for Another Location

Airport or City:

Trip Planner

Search our weather history database for the weather conditions in past years. The results will help you decide how hot, cold, wet, or windy it might be!

Date:

Astronomy

Jan. 10, 2014 Rise Set
Actual Time 7:20 AM CST 5:09 PM CST
Civil Twilight 6:52 AM CST 5:38 PM CST
Nautical Twilight 6:20 AM CST 6:10 PM CST
Astronomical Twilight 5:48 AM CST 6:41 PM CST
Moon 1:12 PM CST (1/10) 2:30 AM CST (1/10)
Length of Visible Light 10h 46m
Length of Day
9h 49m
Waxing Gibbous, 75% of the Moon is Illuminated
Jan 10
Waxing Gibbous
Jan 15
Full
Jan 23
Last Quarter
Jan 30
New
Feb 6
First Quarter

Hourly Weather History & Observations

Time (CST) Temp. Windchill Dew Point Humidity Pressure Visibility Wind Dir Wind Speed Gust Speed Precip Events Conditions
12:53 AM 30.9 °F 24.3 °F 30.9 °F 100% 30.12 in 0.2 mi SSE 6.9 mph - N/A Fog Light Freezing Fog
1:49 AM 32.0 °F 26.4 °F 30.2 °F 93% 30.07 in 1.0 mi SE 5.8 mph - N/A   Mist
1:53 AM 32.0 °F 26.4 °F 30.9 °F 96% 30.10 in 1.2 mi SE 5.8 mph - N/A   Overcast
2:26 AM 32.0 °F 24.2 °F 30.9 °F 96% 30.06 in 0.8 mi SSE 9.2 mph - N/A   Mist
2:53 AM 32.0 °F 28.7 °F 32.0 °F 100% 30.08 in 0.5 mi SSE 3.5 mph - N/A Fog Fog
3:22 AM 32.0 °F 27.5 °F 32.0 °F 100% 30.04 in 1.0 mi SE 4.6 mph - N/A   Mist
3:31 AM 32.0 °F 26.4 °F 32.0 °F 100% 30.04 in 0.8 mi SE 5.8 mph - N/A   Mist
3:51 AM 32.0 °F 26.4 °F 32.0 °F 100% 30.03 in 1.2 mi SSE 5.8 mph - N/A   Overcast
3:53 AM 32.0 °F 27.5 °F 32.0 °F 100% 30.06 in 1.5 mi SSE 4.6 mph - N/A   Overcast
4:00 AM 32.0 °F 26.4 °F 32.0 °F 100% 30.03 in 3.0 mi SSE 5.8 mph - N/A   Overcast
4:09 AM 32.0 °F 26.4 °F 32.0 °F 100% 30.02 in 2.0 mi SE 5.8 mph - N/A   Overcast
4:27 AM 32.0 °F 25.6 °F 32.0 °F 100% 30.02 in 4.0 mi SSE 6.9 mph - N/A   Overcast
4:53 AM 33.1 °F 26.9 °F 32.0 °F 96% 30.04 in 5.0 mi SSE 6.9 mph - N/A   Overcast
5:53 AM 33.1 °F 27.7 °F 33.1 °F 100% 30.01 in 7.0 mi SSE 5.8 mph - N/A   Overcast
6:01 AM 33.1 °F 26.9 °F 33.1 °F 100% 29.99 in 5.0 mi SSE 6.9 mph - N/A   Overcast
6:53 AM 34.0 °F 26.0 °F 33.1 °F 96% 30.01 in 5.0 mi SSE 10.4 mph - 0.01 in Rain Rain
7:17 AM 34.0 °F 26.6 °F 33.1 °F 96% 29.98 in 2.0 mi SSE 9.2 mph - 0.01 in   Overcast
7:28 AM 34.0 °F 28.0 °F 33.1 °F 96% 29.97 in 1.5 mi SE 6.9 mph - 0.01 in   Overcast
7:53 AM 34.0 °F 28.8 °F 33.1 °F 96% 29.99 in 2.5 mi SSE 5.8 mph - 0.02 in   Overcast
8:03 AM 34.0 °F 28.0 °F 33.1 °F 96% 29.96 in 1.0 mi SSE 6.9 mph - N/A   Overcast
8:13 AM 35.1 °F 27.9 °F 34.0 °F 96% 29.97 in 0.8 mi South 9.2 mph - 0.02 in Rain Light Rain
8:18 AM 35.1 °F 28.6 °F 34.0 °F 96% 29.96 in 1.2 mi South 8.1 mph - 0.04 in Rain Light Rain
8:36 AM 35.1 °F 28.6 °F 35.1 °F 100% 29.96 in 2.5 mi SSE 8.1 mph - 0.07 in Rain Light Rain
8:53 AM 35.1 °F 30.1 °F 34.0 °F 96% 29.97 in 1.5 mi SSE 5.8 mph - 0.11 in Rain Rain
9:08 AM 35.1 °F 28.6 °F 34.0 °F 96% 29.94 in 1.0 mi SSE 8.1 mph - 0.05 in Rain Heavy Rain
9:15 AM 35.1 °F 27.9 °F 35.1 °F 100% 29.93 in 2.0 mi SE 9.2 mph - 0.06 in Rain Light Rain
9:42 AM 35.1 °F 28.6 °F 34.0 °F 96% 29.93 in 1.0 mi SSE 8.1 mph - 0.09 in Rain Rain
9:53 AM 36.0 °F 30.3 °F 35.1 °F 97% 29.95 in 1.0 mi SSE 6.9 mph - 0.12 in Rain Rain
10:01 AM 36.0 °F 31.1 °F 35.1 °F 97% 29.92 in 0.5 mi SE 5.8 mph - 0.00 in Fog , Rain Light Rain
10:53 AM 37.0 °F 31.0 °F 37.0 °F 100% 29.91 in 0.2 mi SSE 8.1 mph - 0.00 in Fog Fog
11:48 AM 39.2 °F 33.6 °F 37.4 °F 93% 29.85 in 1.0 mi South 8.1 mph - 0.05 in Rain Light Rain
11:53 AM 39.0 °F 32.8 °F 37.9 °F 96% 29.86 in 0.8 mi SSE 9.2 mph - 0.05 in Rain Light Rain
12:10 PM 39.9 °F 32.9 °F 39.0 °F 97% 29.82 in 1.2 mi SSE 11.5 mph - 0.03 in Rain Light Rain
12:17 PM 41.0 °F 33.5 °F 39.9 °F 96% 29.81 in 3.0 mi South 13.8 mph 25.3 mph 0.04 in Rain Rain
12:34 PM 41.0 °F 34.3 °F 41.0 °F 100% 29.79 in 2.5 mi South 11.5 mph 21.9 mph 0.09 in Rain Rain
12:53 PM 41.0 °F 33.9 °F 41.0 °F 100% 29.80 in 2.5 mi South 12.7 mph - 0.15 in Rain Rain
1:43 PM 42.1 °F 34.5 °F 41.0 °F 96% 29.74 in 3.0 mi SSE 15.0 mph - 0.15 in Rain Rain
1:53 PM 43.0 °F 35.4 °F 42.1 °F 97% 29.75 in 4.0 mi SSE 16.1 mph 24.2 mph 0.17 in Rain Light Rain
2:53 PM 43.0 °F 37.2 °F 43.0 °F 100% 29.75 in 5.0 mi South 10.4 mph - 0.06 in Rain Light Rain
3:28 PM 43.0 °F 37.7 °F 43.0 °F 100% 29.73 in 1.8 mi SSE 9.2 mph - 0.02 in Rain Light Rain
3:44 PM 43.0 °F 37.7 °F 43.0 °F 100% 29.74 in 1.0 mi South 9.2 mph - 0.03 in Rain Light Rain
3:53 PM 43.0 °F 37.7 °F 43.0 °F 100% 29.75 in 0.8 mi South 9.2 mph - 0.04 in Rain Light Rain
4:11 PM 43.0 °F 37.7 °F 43.0 °F 100% 29.73 in 1.2 mi South 9.2 mph - 0.02 in Rain Light Rain
4:19 PM 44.1 °F 38.1 °F 43.0 °F 96% 29.72 in 3.0 mi South 11.5 mph - 0.04 in Rain Rain
4:53 PM 44.1 °F 39.0 °F 43.0 °F 96% 29.70 in 4.0 mi SE 9.2 mph - 0.06 in Rain Light Rain
4:56 PM 44.1 °F 39.0 °F 43.0 °F 96% 29.68 in 1.5 mi SSE 9.2 mph - 0.00 in Rain Light Rain
4:59 PM 44.1 °F 39.0 °F 43.0 °F 96% 29.69 in 0.8 mi SSE 9.2 mph - 0.00 in Rain Light Rain
5:12 PM 44.1 °F 39.5 °F 43.0 °F 96% 29.69 in 1.2 mi South 8.1 mph - 0.00 in   Overcast
5:20 PM 44.1 °F 38.1 °F 43.0 °F 96% 29.67 in 3.0 mi SSE 11.5 mph - 0.01 in Rain Light Rain
5:32 PM 44.1 °F 37.4 °F 43.0 °F 96% 29.67 in 2.5 mi SSE 13.8 mph - 0.01 in   Overcast
5:46 PM 44.1 °F 37.7 °F 43.0 °F 96% 29.66 in 3.0 mi SSE 12.7 mph - 0.01 in   Overcast
5:53 PM 44.1 °F 37.1 °F 44.1 °F 100% 29.67 in 4.0 mi SSE 15.0 mph - 0.01 in   Overcast
6:03 PM 44.1 °F 38.6 °F 44.1 °F 100% 29.64 in 1.8 mi SE 10.4 mph - N/A   Overcast
6:21 PM 45.0 °F 40.1 °F 44.1 °F 97% 29.64 in 3.0 mi SSE 9.2 mph 20.7 mph 0.00 in Rain Light Rain
6:53 PM 45.0 °F 40.6 °F 44.1 °F 97% 29.65 in 2.5 mi SSE 8.1 mph - 0.00 in   Overcast
7:00 PM 45.0 °F 41.2 °F 44.1 °F 97% 29.63 in 1.0 mi SSE 6.9 mph - N/A   Mist
7:09 PM 45.0 °F 41.2 °F 44.1 °F 97% 29.63 in 0.8 mi SSE 6.9 mph - N/A   Mist
7:53 PM 45.0 °F 40.1 °F 45.0 °F 100% 29.64 in 0.2 mi South 9.2 mph - N/A Fog Fog
8:34 PM 46.0 °F 40.2 °F 45.0 °F 96% 29.62 in 1.2 mi South 12.7 mph - 0.00 in Rain Light Rain
8:38 PM 46.0 °F 40.6 °F 46.0 °F 100% 29.62 in 3.0 mi South 11.5 mph - 0.00 in   Overcast
8:53 PM 46.9 °F - 46.0 °F 97% 29.67 in 2.5 mi West 8.1 mph 27.6 mph 0.07 in Rain Heavy Rain
9:04 PM 46.9 °F - 46.0 °F 97% 29.65 in 6.0 mi SSW 3.5 mph - 0.01 in Rain Light Rain
9:53 PM 46.0 °F 43.1 °F 45.0 °F 96% 29.64 in 10.0 mi SW 5.8 mph - 0.02 in   Scattered Clouds
10:11 PM 46.9 °F - 45.0 °F 93% 29.64 in 10.0 mi SW 11.5 mph - N/A   Mostly Cloudy
10:21 PM 46.9 °F - 46.0 °F 97% 29.64 in 10.0 mi WSW 8.1 mph - N/A   Overcast
10:29 PM 46.9 °F - 46.0 °F 97% 29.65 in 10.0 mi WSW 9.2 mph - N/A   Overcast
10:53 PM 48.0 °F - 46.0 °F 93% 29.66 in 10.0 mi West 17.3 mph 25.3 mph N/A   Mostly Cloudy
11:05 PM 46.9 °F - 44.1 °F 90% 29.64 in 10.0 mi West 13.8 mph 21.9 mph N/A   Mostly Cloudy
11:14 PM 46.0 °F 40.2 °F 43.0 °F 89% 29.65 in 10.0 mi West 12.7 mph - N/A   Partly Cloudy
11:53 PM 43.0 °F 38.2 °F 39.9 °F 89% 29.66 in 10.0 mi West 8.1 mph - N/A   Clear